{"data":{"norad_id":56317,"epoch":"2026-09-20T13:26:04.368192Z","epoch_age_seconds":103471,"freshness":"FRESH","line1":"1 56317U 23058A   26263.55977278  .00000407  00000+0  14934-4 0  9994","line2":"2 56317  97.2843 260.3032 0001468  92.2410 267.9001 15.33435845187293","mean_motion":15.33435845,"eccentricity":0.0001468,"inclination_deg":97.2843,"raan_deg":260.3032,"arg_perigee_deg":92.241,"mean_anomaly_deg":267.9001,"bstar":1.4934e-5,"rev_number":18729,"period_min":93.906765300638,"perigee_km":464.56575720426,"apogee_km":466.57506970085,"semimajor_km":6843.7074134526,"source":"CELESTRAK","updated_at":"2026-09-21T09:00:33.400387Z"}}